STARLINK-34102, 63806

Orbit data source: Space-Track

STARLINK-34102, 63806 is a payload satellite owned by SpaceX/Seattle (US) in LEO that was launched on Sun, 04 May 2025 UTC via an FALCON 9 launch vehicle from the Air Force Eastern Test Range (AFETR). Payload-class satellites include a variety of spacecraft equipped with specific instruments for various scientific and technological missions. These include communications satellites like Starlink; space stations such as the ISS; scientific satellites like the Hubble; Earth observation satellites from companies like Planet Labs, Umbra, and HawkEye 360; GPS; miniature CubeSats for education and research; and military/defense satellites.

Loading next visibility...
Identifier
63806, 2025-092C
Orbit
LEO
Country
Flag of USUS
Related business
Manufacturer
SpaceX/Seattle
Mission
Operational Commercial Communications
Bus & Motor
STARLINK V2MO, Unknown motor
Mass
575 kg wet, ~530 kg dry
Launch date (UTC)
2025-05-04 (1 year ago)
Launch vehicle
FALCON 9
Launch site
Air Force Eastern Test Range (AFETR)
Object type
Payload
Rocket body
Debris
Shape & HBR
Box + 1 Pan, 17.7 m
Radar Cross Section
41.120 m², Large (>1 m²)

Expand to show TLE details & history
Last TLE update: 19 hours ago

TLE from 19 hours ago
0 STARLINK-34102
1 63806U 25092C   26267.02574969  .00010312  00000-0  38360-3 0  9996
2 63806  43.0040 132.7916 0001825  19.9505 340.1418 15.27592079 78991
Epoch: 2026-09-24T00:37Z
TLE epoch observation values (Epoch: 2026-09-24T00:37:04.773Z)
Latitude
0.00001°
Longitude
120.65328°
Altitude
481.611 km
Speed
7.627 km/s
True Right ascension
08h 51m 09s
True Declination
0° 00' 00"
Sunlit
Object was in daylight at epoch
Visualization orbit readout
Latitude
Unknown
Longitude
Unknown
Altitude
Unknown
Speed
Unknown
Apparent Right ascension
Unknown
Apparent Declination
Unknown
Sunlit
N/A
Visualization observer readout
Local Sidereal Time
13:02:18
Azimuth
Unknown
Elevation
Unknown
Doppler factor
Unknown
Orbital elements
Apogee altitude
486.21 km
Perigee altitude
483.705 km
Semi-major axis
6,863.094 km
Eccentricity
0.00018
Inclination
43.004°
RAAN
132.7916°
Arg. of periapsis
19.9505°
True anomaly
340.13469°
Mean anomaly
340.1418°
Eccentric anomaly
340.13825°
Mean motion
3.81736 °/min
Orbital period
94.31 mins
BSTAR
0.0003836
Loading maneuver chart data...
Computing Atmospheric mass density...
Loading historical data...
Loading historical data...
Loading historical data...
Loading historical data...
Loading historical data...
Loading historical data...
Loading historical data...

Documentation

Showing up to 5 results
|